[[{"header":{"parameterUnit":"m.s-1","parameterCategory":2,"la1":30.2991,"la2":30.254,"lo1":-89.0895,"lo2":-89.0444,"dy":0.0017,"dx":0.0017,"nx":28,"ny":28,"refTime":"2025-07-03T21:00:00:Z","depth":"0","parameterNumber":2,"parameterNumberName":"U-component_of_CURRENTS"},"data":[0,0,0,0,0,0,0,0,0,0,0,0,0,0,0,0,0,0,0,0,0,0,0,0,0,0,0,0,0,0,0,0,0,0,0,0,0,0,0,0,0,0,0,0,0,0,0,0,0,0,0,0,0,0,0,0,0,0,0.272,0.2721,0,0.277,0.2771,0.2771,0.2762,0.2761,0.276,0.276,0.2847,0.285,0.2853,0,0,0,0,0,0,0,0,0,0,0,0,0,0.2647,0.2648,0.272,0.2721,0.2721,0.277,0.2771,0.2771,0.2762,0.2761,0.276,0.2759,0.2846,0.2849,0.2853,0,0,0,0,0,0,0,0,0,0,0,0,0,0.2685,0.2649,0.272,0.2724,0.2725,0.277,0.2771,0.2771,0.2762,0.2761,0.276,0.2759,0.2845,0.2849,0.2854,0.2903,0,0,0.2867,0.2869,0,0,0,0,0,0,0,0,0.2682,0.2687,0.2723,0.2724,0.2725,0.276,0.2777,0.2818,0.2762,0.2746,0.276,0.2758,0.2824,0.283,0.2838,0.2907,0.2911,0.2868,0.287,0.2872,0.2874,0,0,0,0,0,0,0,0.268,0.2685,0.2738,0.2724,0.2725,0.2735,0.2738,0.2785,0.2789,0.2747,0.2747,0.2756,0.2824,0.2834,0.284,0.2912,0.2868,0.2872,0.2874,0.2876,0.3085,0.3088,0,0,0,0,0,0,0.2677,0.2683,0.2736,0.2739,0.2703,0.2737,0.2741,0.2749,0.2788,0.2793,0.2757,0.2756,0.2827,0.2835,0.2844,0.2914,0.2872,0.2877,0.2879,0.3082,0.3086,0.3089,0,0,0,0,0,0,0.2676,0.2682,0.2734,0.2714,0.2721,0.2739,0.2748,0.275,0.2756,0.2796,0.2801,0.2761,0.2826,0.2837,0.2897,0.2917,0.2879,0.2883,0.3079,0.3083,0.3087,0.305,0,0,0,0,0,0,0.2673,0.2681,0.2688,0.2714,0.2722,0.277,0.2749,0.2752,0.2765,0.2763,0.2801,0.2808,0.2826,0.289,0.2901,0.2923,0.2886,0.3075,0.3081,0.3086,0.3048,0.3052,0.3057,0,0,0,0,0,0.267,0.2695,0.2688,0.2695,0.2731,0.2772,0.2778,0.2785,0.2766,0.2783,0.2809,0.2806,0.2933,0.2896,0.2908,0.2931,0.3073,0.3079,0.3085,0.3046,0.3052,0.3057,0,0,0,0,0,0,0.2685,0.2697,0.269,0.272,0.2744,0.2771,0.279,0.2787,0.2818,0.2814,0.2836,0.2847,0.2911,0.294,0.2899,0.3016,0.3006,0.3015,0.2972,0.2978,0.2982,0.2947,0.289,0,0,0,0,0,0.2687,0.2696,0.2719,0.2743,0.2754,0.2767,0.2782,0.2787,0.2817,0.2827,0.2851,0.2896,0.2951,0.2975,0.303,0.3087,0.3109,0.3118,0.3123,0.3126,0.3112,0.3176,0.3183,0.311,0.311,0.311,0,0,0.2697,0.2708,0.2713,0.2745,0.2759,0.2779,0.2773,0.2803,0.2814,0.2836,0.2866,0.2913,0.2974,0.3038,0.307,0.3058,0.3164,0.3134,0.3135,0.3119,0.3183,0.3189,0.3195,0.3114,0.3113,0.3113,0,0,0.2726,0.2733,0.2746,0.2763,0.2788,0.2798,0.2804,0.283,0.2836,0.2878,0.2903,0.2956,0.3031,0.3073,0.3105,0.3174,0.3189,0.3207,0.3189,0.3252,0.3256,0.3261,0.33,0.3308,0.3203,0.3203,0.3203,0,0.2739,0.275,0.2762,0.278,0.2787,0.2802,0.2815,0.2837,0.2877,0.2884,0.2888,0.2997,0.3044,0.3113,0.3139,0.3177,0.3211,0.315,0.3251,0.3256,0.3261,0.3301,0.331,0.3202,0.3202,0.3202,0.3202,0,0.2769,0.2776,0.2791,0.2801,0.2819,0.2839,0.2859,0.2876,0.2879,0.2893,0.2954,0.302,0.3075,0.3116,0.3143,0.3216,0.3227,0.3247,0.3218,0.3265,0.3305,0.3316,0.32,0.3201,0.3201,0.3201,0,0,0.2797,0.2804,0.2806,0.2794,0.2822,0.2835,0.286,0.288,0.2878,0.2929,0.2938,0.3041,0.3058,0.3099,0.3151,0.3204,0.3273,0.3235,0.3239,0.3239,0.3401,0.3381,0.339,0.331,0.3311,0.3313,0.3412,0,0.281,0.2819,0.2826,0.2829,0.283,0.284,0.2855,0.2876,0.2894,0.2914,0.2975,0.3019,0.3059,0.3086,0.3147,0.3242,0.33,0.3243,0.3385,0.3389,0.3337,0.3402,0.3283,0.336,0.3422,0.3424,0.3425,0,0.283,0.2826,0.2824,0.2807,0.2808,0.2816,0.2814,0.2833,0.2871,0.2884,0.2929,0.2974,0.3056,0.3087,0.3244,0.3207,0.3301,0.3371,0.3378,0.3372,0.3388,0.3329,0.3377,0.3204,0.3441,0.344,0.3439,0,0.2818,0.282,0.2803,0.2802,0.2801,0.2795,0.2798,0.2822,0.2825,0.2867,0.2873,0.2965,0.3012,0.3137,0.3267,0.3268,0.3433,0.3456,0.3526,0.3525,0.3457,0.3447,0.3321,0.3578,0.3578,0.3578,0.3577,0,0.2818,0.2804,0.279,0.2782,0.2757,0.2769,0.2753,0.2767,0.2789,0.2793,0.2855,0.2886,0.303,0.3132,0.3259,0.341,0.3432,0.3527,0.3556,0.3445,0.3433,0.3307,0.3222,0.3581,0.3581,0.358,0.3579,0,0.28,0.2796,0.2774,0.2758,0.2749,0.2732,0.2716,0.2707,0.2733,0.2744,0.2756,0.284,0.2972,0.3109,0.3309,0.3395,0.3439,0.36,0.3442,0.3451,0.3349,0.3268,0.3149,0.3101,0.3693,0.3693,0.3693,0,0.2775,0.2766,0.2745,0.2725,0.2713,0.2688,0.2669,0.268,0.2673,0.2721,0.2726,0.2838,0.2915,0.3163,0.3337,0.3535,0.3432,0.3534,0.3523,0.3321,0.3253,0.3137,0.3097,0.3425,0.3423,0.3421,0.342,0,0.2728,0.2732,0.2717,0.2679,0.2651,0.2618,0.2597,0.2585,0.2606,0.2621,0.2662,0.2726,0.2944,0.3069,0.3304,0.3435,0.3312,0.3508,0.3342,0.3063,0.2884,0.2858,0.3364,0.3405,0.3406,0.3407,0.3408,0.3409,0.2688,0.2668,0.2652,0.2616,0.2582,0.2543,0.2506,0.2501,0.2491,0.2496,0.2592,0.2654,0.2809,0.3126,0.3219,0.3229,0.3258,0.3171,0.3103,0.3015,0.2906,0.3366,0.3412,0.3414,0.3415,0.3416,0.3417,0,0.2622,0.261,0.2579,0.2528,0.2474,0.2482,0.2443,0.2399,0.2374,0.2426,0.2461,0.2556,0.2667,0.2801,0.2884,0.2801,0.2772,0.2709,0.2483,0.2486,0.2931,0.2853,0.2723,0.2723,0.2723,0.2724,0.2724,0.2724,0.2579,0.2543,0.2535,0.2434,0.2395,0.23,0.2275,0.2234,0.2246,0.2219,0.2237,0.2306,0.2359,0.2353,0.2288,0.2302,0.2123,0.2043,0.2057,0.2294,0.233,0.2364,0.2268,0.2017,0.2017,0.1561,0.1557,0.1553]},{"header":{"parameterUnit":"m.s-1","parameterCategory":2,"la1":30.2991,"la2":30.254,"lo1":-89.0895,"lo2":-89.0444,"dy":0.0017,"dx":0.0017,"nx":28,"ny":28,"refTime":"2025-07-03T21:00:00:Z","depth":"0","parameterNumber":3,"parameterNumberName":"V-component_of_CURRENTS"},"data":[0,0,0,0,0,0,0,0,0,0,0,0,0,0,0,0,0,0,0,0,0,0,0,0,0,0,0,0,0,0,0,0,0,0,0,0,0,0,0,0,0,0,0,0,0,0,0,0,0,0,0,0,0,0,0,0,0,0,0.0141,0.0142,0,0.0211,0.0212,0.0213,0.0227,0.0227,0.0226,0.0226,0.0267,0.0269,0.027,0,0,0,0,0,0,0,0,0,0,0,0,0,0.0038,0.004,0.0141,0.0142,0.0143,0.0211,0.0212,0.0213,0.0227,0.0227,0.0226,0.0225,0.0267,0.0268,0.027,0,0,0,0,0,0,0,0,0,0,0,0,0,0.0093,0.004,0.0141,0.0158,0.016,0.0211,0.0212,0.0213,0.0227,0.0227,0.0226,0.0225,0.0266,0.0268,0.0271,0.03,0,0,0.0278,0.0279,0,0,0,0,0,0,0,0,0.0089,0.0096,0.0155,0.0157,0.016,0.021,0.0191,0.0241,0.0228,0.0202,0.0226,0.0225,0.0246,0.025,0.0265,0.0302,0.0304,0.0278,0.0279,0.028,0.0281,0,0,0,0,0,0,0,0.0086,0.0093,0.0168,0.0156,0.0159,0.0169,0.0176,0.0201,0.0226,0.0204,0.0205,0.0214,0.0247,0.0263,0.0266,0.0305,0.0278,0.028,0.0282,0.0282,0.0414,0.0416,0,0,0,0,0,0,0.0078,0.009,0.0166,0.017,0.0122,0.0172,0.0179,0.0194,0.0227,0.0232,0.0214,0.0214,0.0259,0.0263,0.0267,0.033,0.028,0.0283,0.0284,0.0412,0.0414,0.0417,0,0,0,0,0,0,0.0075,0.0084,0.0163,0.0131,0.0142,0.0174,0.0191,0.0196,0.021,0.0235,0.0239,0.0223,0.0259,0.0264,0.0309,0.033,0.0284,0.0286,0.041,0.0413,0.0416,0.0439,0,0,0,0,0,0,0.0072,0.0083,0.0088,0.0131,0.0144,0.0195,0.0192,0.0198,0.0217,0.0217,0.0244,0.0247,0.0258,0.0305,0.0311,0.0333,0.0288,0.0407,0.0411,0.0415,0.0435,0.0442,0.0448,0,0,0,0,0,0.0068,0.0077,0.0088,0.0097,0.0151,0.0196,0.0204,0.0223,0.0218,0.0231,0.026,0.0246,0.0334,0.0309,0.0315,0.0338,0.0405,0.041,0.0414,0.0432,0.0441,0.0448,0,0,0,0,0,0,0.002,0.0081,0.0093,0.0116,0.0154,0.0198,0.0209,0.0224,0.0257,0.0255,0.0273,0.028,0.0328,0.0337,0.0309,0.0391,0.0367,0.0373,0.0379,0.0387,0.0393,0.0383,0.029,0,0,0,0,0,0.0016,0.0048,0.0098,0.0115,0.0135,0.0172,0.019,0.0209,0.0245,0.0257,0.0282,0.0314,0.0355,0.0371,0.0405,0.0447,0.0429,0.0469,0.0475,0.048,0.0479,0.0474,0.0479,0.0432,0.0432,0.0432,0,0,0.0,0.0038,0.0053,0.0109,0.0138,0.0182,0.0181,0.0213,0.0252,0.0257,0.031,0.0336,0.0373,0.0427,0.0448,0.0433,0.0486,0.0486,0.049,0.0486,0.0479,0.0483,0.0487,0.0435,0.0435,0.0434,0,0,-0.0001,0.0021,0.0056,0.0094,0.0147,0.0178,0.0188,0.0241,0.0263,0.032,0.0339,0.038,0.0436,0.0471,0.0495,0.0559,0.0521,0.0569,0.0588,0.0584,0.0586,0.0589,0.0565,0.0565,0.0569,0.0569,0.0569,0,-0.0028,0.0033,0.0068,0.0115,0.0149,0.0179,0.0224,0.0258,0.0319,0.0344,0.0339,0.0436,0.0461,0.053,0.0556,0.057,0.055,0.055,0.0588,0.059,0.0592,0.0567,0.0567,0.0571,0.0571,0.057,0.057,0,0.0014,0.0059,0.0079,0.0158,0.0195,0.0235,0.0292,0.0327,0.0353,0.0388,0.0453,0.0493,0.0544,0.0566,0.0581,0.0621,0.0597,0.0594,0.0557,0.0597,0.057,0.0569,0.0573,0.0573,0.0572,0.0572,0,0,-0.0039,0.0087,0.0094,0.0143,0.0223,0.026,0.0321,0.039,0.0426,0.0474,0.0522,0.0595,0.0596,0.0625,0.0645,0.0647,0.0645,0.0624,0.0623,0.0581,0.0613,0.0586,0.0582,0.0637,0.0637,0.0637,0.0586,0,-0.0017,0.0086,0.014,0.0225,0.0282,0.033,0.0385,0.0444,0.0486,0.0537,0.0573,0.0624,0.0625,0.0644,0.0651,0.0656,0.0644,0.0658,0.0599,0.0597,0.0552,0.0581,0.0626,0.0583,0.0584,0.0584,0.0584,0,0.0012,0.0082,0.0177,0.0281,0.0305,0.0351,0.0435,0.0489,0.0559,0.0587,0.063,0.0651,0.0689,0.0669,0.067,0.0674,0.0642,0.0631,0.0628,0.0593,0.0569,0.0548,0.058,0.0516,0.0582,0.0582,0.0582,0,-0.0013,0.0103,0.0182,0.022,0.0337,0.0373,0.0423,0.0499,0.0546,0.0608,0.0635,0.0676,0.0694,0.0673,0.0658,0.0656,0.0636,0.0627,0.0569,0.0566,0.0588,0.0586,0.0536,0.0604,0.0604,0.0604,0.0604,0,0.0007,0.0066,0.0175,0.0221,0.0293,0.0365,0.0432,0.0487,0.0555,0.0611,0.0647,0.0689,0.0691,0.0689,0.0659,0.0614,0.0631,0.0572,0.0556,0.0598,0.0598,0.0531,0.0485,0.0602,0.0602,0.0603,0.0603,0,-0.0008,0.0066,0.0155,0.0265,0.0293,0.0341,0.0434,0.0483,0.054,0.0609,0.0626,0.069,0.0694,0.0682,0.0655,0.0612,0.0539,0.0546,0.0587,0.0576,0.0456,0.0411,0.033,0.0304,0.0469,0.0468,0.0468,0,0.001,0.0059,0.0169,0.0211,0.0263,0.0336,0.0388,0.0467,0.0518,0.0615,0.0647,0.0678,0.0728,0.0679,0.0625,0.0561,0.0506,0.0519,0.0527,0.0453,0.039,0.0363,0.0346,0.0564,0.0564,0.0564,0.0564,0,0.0038,0.0069,0.014,0.0214,0.0272,0.0347,0.0422,0.0461,0.0555,0.0615,0.0697,0.0744,0.0728,0.0723,0.0632,0.058,0.0481,0.0514,0.0444,0.0461,0.0424,0.0392,0.0573,0.0565,0.0564,0.0564,0.0564,0.0564,0.0046,0.0088,0.0163,0.0228,0.0291,0.0362,0.0417,0.0499,0.0586,0.0707,0.0738,0.0857,0.083,0.074,0.0632,0.0476,0.0456,0.0437,0.0386,0.0363,0.0346,0.051,0.0479,0.0478,0.0478,0.0477,0.0477,0,0.0063,0.011,0.0175,0.0258,0.0313,0.0349,0.0447,0.0513,0.0615,0.0761,0.0854,0.0968,0.0891,0.0781,0.0566,0.0401,0.0359,0.0311,0.0301,0.0289,0.0451,0.0464,0.0422,0.0422,0.0422,0.0422,0.0422,0.0422,0.008,0.0137,0.017,0.0259,0.0311,0.0395,0.045,0.0552,0.0677,0.087,0.1013,0.1122,0.1068,0.0639,0.0354,0.0286,0.0177,0.0149,0.0066,0.0196,0.0205,0.0214,0.0217,0.0124,0.0123,-0.0031,-0.0033,-0.0035]}],[{"header":{"parameterUnit":"m.s-1","parameterCategory":2,"la1":30.2991,"la2":30.254,"lo1":-89.0895,"lo2":-89.0444,"dy":0.0017,"dx":0.0017,"nx":28,"ny":28,"refTime":"2025-07-03T21:00:00:Z","depth":"2","parameterNumber":2,"parameterNumberName":"U-component_of_CURRENTS"},"data":[0,0,0,0,0,0,0,0,0,0,0,0,0,0,0,0,0,0,0,0,0,0,0,0,0,0,0,0,0,0,0,0,0,0,0,0,0,0,0,0,0,0,0,0,0,0,0,0,0,0,0,0,0,0,0,0,0,0,0.1306,0.1306,0,0.1276,0.1276,0.1275,0.1296,0.1297,0.1298,0.1298,0.1382,0.1384,0.1385,0,0,0,0,0,0,0,0,0,0,0,0,0,0.141,0.1408,0.1306,0.1305,0.1305,0.1276,0.1275,0.1275,0.1296,0.1297,0.1298,0.1299,0.1382,0.1384,0.1385,0,0,0,0,0,0,0,0,0,0,0,0,0,0.1371,0.1408,0.1306,0.1312,0.1312,0.1276,0.1275,0.1275,0.1295,0.1297,0.1298,0.1299,0.1381,0.1383,0.1385,0.1371,0,0,0.1392,0.1393,0,0,0,0,0,0,0,0,0.1373,0.1367,0.1311,0.1311,0.1311,0.1291,0.1343,0.1313,0.1295,0.1302,0.1298,0.13,0.1361,0.1365,0.1355,0.1375,0.1378,0.1392,0.1393,0.1394,0.1395,0,0,0,0,0,0,0,0.1376,0.1369,0.1294,0.1311,0.1311,0.1326,0.1322,0.1337,0.1326,0.1301,0.1303,0.1299,0.1362,0.1353,0.1357,0.1379,0.1392,0.1394,0.1395,0.1396,0.1489,0.149,0,0,0,0,0,0,0.1376,0.1371,0.1295,0.1293,0.1346,0.1323,0.1318,0.1296,0.1324,0.1328,0.1297,0.13,0.1348,0.1355,0.1361,0.1434,0.1394,0.1396,0.1397,0.1488,0.149,0.1491,0,0,0,0,0,0,0.1378,0.1369,0.1296,0.1333,0.1325,0.1319,0.1295,0.1295,0.131,0.132,0.1327,0.1316,0.135,0.1358,0.1398,0.1434,0.1397,0.1399,0.1487,0.1489,0.149,0.1524,0,0,0,0,0,0,0.1381,0.1369,0.1368,0.1332,0.1323,0.1285,0.1293,0.1293,0.1304,0.1307,0.1337,0.1344,0.1351,0.1395,0.14,0.1436,0.14,0.1485,0.1487,0.149,0.1521,0.1526,0.1531,0,0,0,0,0,0.1384,0.1372,0.1367,0.1359,0.1315,0.1285,0.1282,0.1283,0.1304,0.1304,0.1335,0.1345,0.1414,0.1397,0.1403,0.1441,0.1484,0.1487,0.1489,0.1519,0.1525,0.1531,0,0,0,0,0,0,0.1429,0.1371,0.1366,0.1341,0.132,0.1289,0.1293,0.1295,0.1316,0.1336,0.1353,0.1362,0.1411,0.1419,0.14,0.1475,0.1454,0.1458,0.1474,0.148,0.1485,0.149,0.1402,0,0,0,0,0,0.1432,0.1402,0.1362,0.1347,0.1337,0.1321,0.1316,0.1315,0.132,0.1331,0.1351,0.1385,0.142,0.1445,0.1465,0.1503,0.153,0.1534,0.1539,0.1543,0.1551,0.1619,0.1631,0.15,0.15,0.15,0,0,0.145,0.1413,0.1401,0.1354,0.1341,0.1328,0.1322,0.1318,0.1327,0.1339,0.1374,0.14,0.1432,0.1475,0.1499,0.1492,0.1596,0.1547,0.155,0.1556,0.1623,0.1636,0.1647,0.1502,0.1502,0.1501,0,0,0.1457,0.1432,0.141,0.139,0.1365,0.1351,0.1356,0.1336,0.1351,0.1374,0.1399,0.1446,0.1482,0.1517,0.1541,0.1586,0.1616,0.1601,0.1638,0.1703,0.1715,0.1725,0.1781,0.1796,0.1609,0.1609,0.1609,0,0.1491,0.1442,0.1406,0.1383,0.1377,0.1366,0.136,0.1365,0.1368,0.1396,0.1395,0.1482,0.1503,0.1581,0.1597,0.16,0.164,0.1611,0.1711,0.1721,0.1731,0.1786,0.1803,0.1611,0.1611,0.1611,0.1611,0,0.1467,0.1448,0.1438,0.14,0.1392,0.1385,0.1379,0.1396,0.1418,0.1432,0.1506,0.1534,0.1593,0.161,0.1618,0.1709,0.1715,0.1704,0.1694,0.1747,0.1801,0.1818,0.1614,0.1613,0.1613,0.1612,0,0,0.1515,0.1435,0.1443,0.1426,0.1403,0.1392,0.142,0.144,0.1479,0.1507,0.1569,0.163,0.1659,0.1688,0.1714,0.1769,0.187,0.1773,0.1775,0.1828,0.2023,0.1908,0.1915,0.1884,0.1887,0.1889,0.2034,0,0.1523,0.1475,0.1444,0.1437,0.1415,0.1419,0.1443,0.1472,0.1506,0.1561,0.1625,0.1687,0.1686,0.1728,0.1787,0.185,0.1914,0.1832,0.1965,0.1969,0.186,0.193,0.1675,0.1772,0.205,0.2053,0.2055,0,0.1524,0.1487,0.1465,0.144,0.1438,0.1446,0.1493,0.1509,0.1587,0.1622,0.1702,0.1744,0.1849,0.1825,0.1979,0.1932,0.1985,0.2024,0.2031,0.1922,0.1884,0.1765,0.1791,0.2082,0.208,0.2078,0.2076,0,0.1559,0.1517,0.1497,0.1486,0.1457,0.148,0.149,0.1546,0.1577,0.1673,0.1722,0.1833,0.1904,0.1992,0.2077,0.2045,0.2234,0.2195,0.2145,0.2138,0.1944,0.1913,0.2305,0.2304,0.2304,0.2304,0.2303,0,0.1565,0.1562,0.1513,0.1501,0.1511,0.1499,0.1541,0.1571,0.1635,0.1687,0.1764,0.1835,0.1951,0.2062,0.2123,0.2192,0.2281,0.2169,0.2173,0.1946,0.1916,0.2194,0.218,0.2309,0.2308,0.2307,0.2306,0,0.1596,0.1562,0.1539,0.1515,0.1516,0.153,0.1548,0.1576,0.1644,0.172,0.1758,0.1876,0.2012,0.2121,0.2271,0.224,0.232,0.2322,0.2042,0.2007,0.2168,0.2154,0.2272,0.2269,0.2267,0.2265,0.2263,0,0.1588,0.1574,0.1551,0.154,0.153,0.1542,0.155,0.1587,0.1612,0.1739,0.1777,0.193,0.2012,0.2178,0.2134,0.2203,0.2334,0.2022,0.1888,0.2175,0.2168,0.2157,0.2146,0.1661,0.1655,0.165,0.1646,0,0.1573,0.158,0.1559,0.154,0.154,0.1527,0.1542,0.1561,0.1617,0.1685,0.1779,0.1857,0.1943,0.1871,0.1927,0.1927,0.1977,0.1912,0.2326,0.1686,0.1604,0.1595,0.1604,0.1599,0.1603,0.1607,0.1609,0.1611,0.1571,0.1561,0.1538,0.1526,0.1518,0.1501,0.1489,0.1508,0.154,0.1575,0.1688,0.1708,0.1655,0.1578,0.1581,0.1563,0.1674,0.1606,0.1621,0.1642,0.1522,0.1438,0.138,0.1383,0.1386,0.1389,0.1391,0,0.1533,0.1529,0.1513,0.1481,0.1456,0.1476,0.1467,0.1434,0.1445,0.144,0.1479,0.1277,0.1224,0.1278,0.1117,0.1088,0.1068,0.1113,0.1067,0.1109,0.1148,0.1004,0.0726,0.0725,0.0725,0.0724,0,0,0.1506,0.1481,0.1473,0.1417,0.141,0.1366,0.1357,0.1303,0.1268,0.1158,0.1093,0.1101,0.1142,0.0886,0.0837,0.079,0.0962,0.0756,0.1264,0.1246,0.1285,0.1378,0.1196,0,0,0,0,0]},{"header":{"parameterUnit":"m.s-1","parameterCategory":2,"la1":30.2991,"la2":30.254,"lo1":-89.0895,"lo2":-89.0444,"dy":0.0017,"dx":0.0017,"nx":28,"ny":28,"refTime":"2025-07-03T21:00:00:Z","depth":"2","parameterNumber":3,"parameterNumberName":"V-component_of_CURRENTS"},"data":[0,0,0,0,0,0,0,0,0,0,0,0,0,0,0,0,0,0,0,0,0,0,0,0,0,0,0,0,0,0,0,0,0,0,0,0,0,0,0,0,0,0,0,0,0,0,0,0,0,0,0,0,0,0,0,0,0,0,-0.0091,-0.0092,0,-0.0134,-0.0135,-0.0135,-0.0171,-0.0171,-0.0172,-0.0172,-0.0255,-0.0257,-0.0259,0,0,0,0,0,0,0,0,0,0,0,0,0,-0.0047,-0.0048,-0.0091,-0.0092,-0.0092,-0.0134,-0.0135,-0.0135,-0.0171,-0.0171,-0.0172,-0.0172,-0.0255,-0.0257,-0.0259,0,0,0,0,0,0,0,0,0,0,0,0,0,-0.0075,-0.0048,-0.0091,-0.0116,-0.0119,-0.0134,-0.0135,-0.0135,-0.0171,-0.0171,-0.0172,-0.0173,-0.0254,-0.0257,-0.0259,-0.0262,0,0,-0.0267,-0.0269,0,0,0,0,0,0,0,0,-0.0073,-0.0076,-0.0112,-0.0114,-0.0117,-0.0149,-0.015,-0.018,-0.017,-0.015,-0.0172,-0.0173,-0.0224,-0.0229,-0.0233,-0.0266,-0.0269,-0.0268,-0.0269,-0.027,-0.0271,0,0,0,0,0,0,0,-0.0071,-0.0075,-0.0107,-0.0112,-0.0116,-0.0128,-0.0132,-0.0155,-0.0182,-0.0152,-0.0155,-0.0161,-0.0225,-0.0231,-0.0236,-0.027,-0.0268,-0.027,-0.0272,-0.0273,-0.0315,-0.0314,0,0,0,0,0,0,-0.0067,-0.0073,-0.0106,-0.0109,-0.0098,-0.0128,-0.0133,-0.0137,-0.0181,-0.0188,-0.016,-0.0162,-0.0226,-0.0232,-0.0239,-0.0221,-0.027,-0.0273,-0.0274,-0.0315,-0.0315,-0.0314,0,0,0,0,0,0,-0.0066,-0.0069,-0.0104,-0.0093,-0.0098,-0.0128,-0.0132,-0.0138,-0.0147,-0.0187,-0.0195,-0.0165,-0.0227,-0.0235,-0.0249,-0.0226,-0.0274,-0.0277,-0.0316,-0.0315,-0.0314,-0.0201,0,0,0,0,0,0,-0.0064,-0.0068,-0.0071,-0.0092,-0.0099,-0.0103,-0.0132,-0.0138,-0.015,-0.0153,-0.0194,-0.0202,-0.0228,-0.0245,-0.0252,-0.023,-0.0279,-0.0316,-0.0315,-0.0315,-0.0205,-0.0197,-0.0189,0,0,0,0,0,-0.0062,-0.0063,-0.007,-0.0075,-0.01,-0.0102,-0.0106,-0.0129,-0.015,-0.0143,-0.0169,-0.0201,-0.0245,-0.0246,-0.0254,-0.0233,-0.0317,-0.0316,-0.0315,-0.0209,-0.0198,-0.0189,0,0,0,0,0,0,-0.0058,-0.0067,-0.0076,-0.0083,-0.0087,-0.0108,-0.0113,-0.0127,-0.0143,-0.0152,-0.0191,-0.0199,-0.0203,-0.0239,-0.024,-0.0246,-0.0288,-0.0289,-0.0205,-0.0195,-0.0187,-0.0169,-0.0281,0,0,0,0,0,-0.0054,-0.005,-0.0062,-0.0068,-0.0069,-0.009,-0.0096,-0.0108,-0.0126,-0.0134,-0.0159,-0.019,-0.0204,-0.0216,-0.0238,-0.024,-0.0271,-0.0236,-0.0228,-0.022,-0.0213,-0.0242,-0.0235,-0.0311,-0.0311,-0.0311,0,0,-0.0057,-0.0061,-0.0062,-0.0065,-0.0075,-0.006,-0.0095,-0.01,-0.0083,-0.0141,-0.0133,-0.0162,-0.0199,-0.0194,-0.0201,-0.0222,-0.0212,-0.0219,-0.0212,-0.0209,-0.024,-0.0233,-0.0226,-0.031,-0.031,-0.031,0,0,-0.005,-0.006,-0.0049,-0.0042,-0.0046,-0.0048,-0.0046,-0.0058,-0.006,-0.0056,-0.0088,-0.01,-0.0132,-0.0141,-0.0153,-0.0118,-0.0166,-0.0133,-0.0074,-0.0101,-0.0095,-0.009,-0.0097,-0.0094,-0.0129,-0.0129,-0.0129,0,-0.0058,-0.0039,-0.0047,-0.0029,-0.0018,-0.0036,-0.0013,-0.001,-0.0023,-0.0015,-0.0043,-0.0071,-0.0102,-0.0086,-0.007,-0.0096,-0.0118,-0.0102,-0.0088,-0.0084,-0.0081,-0.009,-0.0087,-0.0123,-0.0124,-0.0124,-0.0125,0,-0.0033,-0.0016,-0.0009,0.0018,0.0032,0.0046,0.0057,0.0071,0.0062,0.0061,0.0068,0.003,0.0011,0.0004,-0.002,-0.0005,-0.0029,-0.0071,-0.0106,-0.0066,-0.0079,-0.0078,-0.0115,-0.0117,-0.0119,-0.012,0,0,-0.0069,-0.0002,-0.0003,0.0032,0.006,0.0077,0.0117,0.015,0.0179,0.0161,0.019,0.0168,0.0137,0.0121,0.0087,0.0069,0.0083,0.0017,0.0013,0.0024,0.0038,0.0053,0.0054,0.0041,0.0041,0.0042,0.0028,0,-0.0051,0.0011,0.0036,0.0098,0.0133,0.0153,0.0197,0.0226,0.0238,0.0263,0.0233,0.0236,0.0186,0.0177,0.0155,0.01,0.0086,0.0091,-0.0016,-0.0019,0.0001,0.0056,0.0032,0.002,0.0028,0.0028,0.0028,0,-0.004,0.0007,0.0074,0.0162,0.0176,0.0209,0.0281,0.0319,0.0356,0.0362,0.036,0.0332,0.0323,0.0257,0.0193,0.0198,0.0129,0.008,0.0077,0.005,-0.0003,-0.0026,0.002,0.0028,0.0028,0.0028,0.0028,0,-0.0047,0.0031,0.0094,0.0119,0.0209,0.0242,0.0285,0.0339,0.0385,0.0417,0.0442,0.0416,0.0401,0.0321,0.0234,0.0206,0.0159,0.0098,0.0051,0.0052,-0.001,-0.0014,0.0044,0.0044,0.0044,0.0044,0.0044,0,-0.0031,0.0012,0.0094,0.0129,0.0204,0.0253,0.0328,0.0371,0.0431,0.0496,0.048,0.0516,0.0411,0.0376,0.0275,0.019,0.0186,0.0082,0.0054,0.0032,0.0031,-0.0008,-0.0014,0.0044,0.0044,0.0044,0.0044,0,-0.0044,0.0007,0.0084,0.0177,0.0205,0.0255,0.0356,0.0418,0.0467,0.0549,0.0562,0.0586,0.0554,0.0464,0.0348,0.025,0.0158,0.0119,0.012,0.0093,0.0056,0.0056,0.0064,0.0064,0.0065,0.0065,0.0065,0,-0.0035,0.0004,0.0107,0.0157,0.0198,0.0276,0.0342,0.042,0.0493,0.0598,0.0646,0.0653,0.0692,0.0562,0.0383,0.0239,0.0202,0.011,0.0048,0.0089,0.006,0.0059,0.0058,0.0013,0.0012,0.0012,0.0012,0,-0.001,0.0018,0.0088,0.0179,0.0251,0.0346,0.0441,0.0503,0.0609,0.0692,0.0801,0.0844,0.0738,0.059,0.04,0.0292,0.0135,0.0104,0.014,0.0021,0.0042,0.0013,0.0013,0.0011,0.0011,0.0011,0.0011,0.0011,0.0006,0.0059,0.0145,0.0231,0.0308,0.0418,0.0492,0.061,0.0739,0.0875,0.091,0.0944,0.0729,0.0479,0.0329,0.0155,0.0151,0.0043,0.0042,0.0041,0.0048,0.0069,0.0046,0.0046,0.0046,0.0047,0.0047,0,0.006,0.0117,0.02,0.0312,0.0392,0.0423,0.0567,0.0661,0.0812,0.0904,0.101,0.0814,0.0671,0.0463,0.0188,0.0041,0.0023,0.0007,-0.0021,-0.0019,-0.0018,-0.0015,-0.0034,-0.0034,-0.0034,-0.0035,0,0,0.0102,0.0194,0.0244,0.0374,0.0428,0.0532,0.0608,0.0758,0.084,0.0947,0.0927,0.0915,0.064,0.0399,0.0209,0.0086,0.0078,0.0078,0.0152,0.0142,0.0146,0.0006,0.0013,0,0,0,0,0]}],[{"header":{"parameterUnit":"m.s-1","parameterCategory":2,"la1":30.2991,"la2":30.254,"lo1":-89.0895,"lo2":-89.0444,"dy":0.0017,"dx":0.0017,"nx":28,"ny":28,"refTime":"2025-07-03T21:00:00:Z","depth":"4","parameterNumber":2,"parameterNumberName":"U-component_of_CURRENTS"},"data":[0,0,0,0,0,0,0,0,0,0,0,0,0,0,0,0,0,0,0,0,0,0,0,0,0,0,0,0,0,0,0,0,0,0,0,0,0,0,0,0,0,0,0,0,0,0,0,0,0,0,0,0,0,0,0,0,0,0,-0.0016,-0.0015,0,0.0076,0.0077,0.0078,0.018,0.0181,0.0183,0.0184,0.0214,0.0214,0.0213,0,0,0,0,0,0,0,0,0,0,0,0,0,-0.0079,-0.0079,-0.0016,-0.0015,-0.0014,0.0076,0.0077,0.0079,0.018,0.0181,0.0183,0.0184,0.0214,0.0214,0.0213,0,0,0,0,0,0,0,0,0,0,0,0,0,-0.0024,-0.0078,-0.0016,0.0045,0.0052,0.0075,0.0077,0.0079,0.018,0.0181,0.0183,0.0185,0.0214,0.0214,0.0213,0.0171,0,0,0.0212,0.0211,0,0,0,0,0,0,0,0,-0.0027,-0.0022,0.0035,0.0041,0.0048,0.0117,0.0066,0.0106,0.0179,0.0133,0.0184,0.0186,0.0173,0.0176,0.0193,0.0173,0.0174,0.0211,0.0211,0.0211,0.0211,0,0,0,0,0,0,0,-0.0031,-0.0025,0.0023,0.0036,0.0044,0.0077,0.0087,0.0075,0.0142,0.0137,0.0145,0.0151,0.0177,0.0193,0.0194,0.0175,0.0212,0.0211,0.0211,0.021,0.025,0.0251,0,0,0,0,0,0,-0.0051,-0.0029,0.002,0.0025,0.0012,0.0076,0.0088,0.0094,0.0144,0.0153,0.0149,0.0155,0.0193,0.0195,0.0195,0.0286,0.0211,0.021,0.021,0.0249,0.025,0.0252,0,0,0,0,0,0,-0.0052,-0.0047,0.0016,-0.0001,0.0009,0.0075,0.0082,0.0095,0.0175,0.0152,0.0161,0.0222,0.0195,0.0196,0.0244,0.0282,0.021,0.021,0.0247,0.0249,0.0251,0.0377,0,0,0,0,0,0,-0.0055,-0.0048,-0.0037,-0.0003,0.0009,0.0069,0.008,0.0096,0.017,0.0181,0.0216,0.0218,0.0197,0.0245,0.0243,0.028,0.0209,0.0245,0.0248,0.025,0.0371,0.0384,0.0394,0,0,0,0,0,-0.0057,-0.0047,-0.0037,-0.0031,0.0018,0.0071,0.0082,0.0135,0.0172,0.0214,0.0245,0.022,0.0259,0.0246,0.0244,0.0281,0.0244,0.0247,0.025,0.0366,0.0381,0.0394,0,0,0,0,0,0,-0.0062,-0.0036,-0.0023,-0.0004,0.0045,0.0088,0.013,0.0169,0.0229,0.0259,0.0244,0.0248,0.0299,0.0271,0.0256,0.0298,0.0244,0.0247,0.0333,0.0347,0.0358,0.0365,0.0209,0,0,0,0,0,-0.0066,-0.0046,-0.0012,0.0013,0.0041,0.0098,0.0132,0.0181,0.0226,0.0261,0.0285,0.0298,0.0297,0.0313,0.0308,0.0336,0.0297,0.0354,0.0366,0.0376,0.0379,0.0358,0.0367,0.0262,0.0262,0.0262,0,0,-0.0065,-0.0043,-0.0034,0.0014,0.006,0.0123,0.0128,0.0211,0.0276,0.0247,0.0354,0.0345,0.0313,0.035,0.0369,0.0342,0.0387,0.038,0.0389,0.0386,0.0362,0.0372,0.0381,0.0264,0.0264,0.0264,0,0,-0.0038,-0.0023,0.0013,0.0063,0.0142,0.0176,0.0214,0.0296,0.0349,0.0426,0.0419,0.0443,0.0462,0.0448,0.0435,0.0502,0.0447,0.0502,0.0569,0.055,0.0558,0.0565,0.054,0.0544,0.0508,0.0508,0.0508,0,-0.0029,0.0019,0.0036,0.0102,0.0156,0.0211,0.0291,0.0341,0.0434,0.0469,0.0482,0.0517,0.0502,0.0517,0.0544,0.0528,0.0506,0.0525,0.0565,0.0571,0.0576,0.0548,0.0551,0.0515,0.0514,0.0513,0.0513,0,0.0025,0.0089,0.0126,0.0218,0.0274,0.0358,0.0423,0.0498,0.0562,0.0597,0.0659,0.0643,0.0656,0.0653,0.0622,0.0648,0.0618,0.0583,0.0534,0.0594,0.0561,0.0561,0.0524,0.0522,0.052,0.0518,0,0,0.0005,0.0135,0.0161,0.0233,0.0354,0.0409,0.0511,0.06,0.0664,0.0733,0.0793,0.08,0.0796,0.078,0.0746,0.0731,0.0751,0.0685,0.0681,0.0666,0.0711,0.0595,0.0583,0.073,0.073,0.0731,0.0678,0,0.0063,0.0193,0.0246,0.0397,0.0477,0.0553,0.0631,0.0715,0.0774,0.0839,0.0831,0.0869,0.0841,0.085,0.0839,0.0766,0.0756,0.0768,0.0649,0.0645,0.0539,0.0581,0.0732,0.0678,0.0678,0.0678,0.0678,0,0.0113,0.0198,0.0345,0.0492,0.0534,0.063,0.0761,0.0834,0.0906,0.0943,0.098,0.0972,0.0974,0.0933,0.0871,0.0884,0.0818,0.0758,0.0753,0.0597,0.0529,0.06,0.0677,0.0677,0.0677,0.0677,0.0677,0,0.0097,0.0273,0.0394,0.0453,0.0615,0.0703,0.0786,0.0881,0.093,0.101,0.1032,0.105,0.1036,0.0987,0.0853,0.0886,0.0739,0.0765,0.0601,0.0591,0.0657,0.0649,0.0721,0.0721,0.0721,0.0721,0.0721,0,0.0132,0.0235,0.0412,0.0483,0.0624,0.073,0.0854,0.0928,0.1006,0.1015,0.1084,0.1018,0.1047,0.0951,0.0869,0.0703,0.0752,0.0615,0.0571,0.0712,0.0711,0.0657,0.065,0.0719,0.072,0.072,0.072,0,0.0103,0.0219,0.0366,0.056,0.0629,0.0731,0.0888,0.0939,0.1027,0.1036,0.1057,0.1019,0.0875,0.0844,0.0713,0.069,0.0558,0.0474,0.0603,0.0566,0.0445,0.0445,0.038,0.0376,0.0372,0.0368,0.0366,0,0.0103,0.0181,0.04,0.0483,0.0592,0.0743,0.0819,0.0944,0.0961,0.0942,0.0898,0.081,0.0752,0.0506,0.0456,0.0362,0.0327,0.0351,0.0455,0.0447,0.0411,0.0417,0.0423,0.036,0.0359,0.0358,0.0357,0,0.0094,0.0181,0.0282,0.0443,0.0572,0.0678,0.0784,0.0772,0.0836,0.0931,0.0749,0.0669,0.0484,0.0374,0.0306,0.0207,0.0414,0.0312,0.0323,0.0422,0.0421,0.039,0.0401,0.0343,0.0345,0.0346,0.0347,0,0.0078,0.0126,0.0252,0.0388,0.0517,0.0557,0.0629,0.0633,0.0666,0.0681,0.0546,0.0421,0.04,0.027,0.0133,0.0112,0.0154,0.0252,0.0267,0.0282,0.0269,0.0255,0.0088,0,0,0,0,0,0.0067,0.009,0.0185,0.0318,0.0427,0.05,0.057,0.0615,0.0647,0.0532,0.0577,0.0386,0.0241,0.0119,0.0074,0.0051,0.0132,0.0004,0.0249,0.0269,0.0285,0.0275,0,0,0,0,0,0,0.0048,0.0118,0.0142,0.0219,0.0282,0.0383,0.0405,0.0433,0.0377,0.0412,0.0295,0.0412,0.0219,0.0256,0.0072,0.006,0.0225,-0.0025,-0.0024,0.026,0.0274,0.0287,0.0282,0,0,0,0,0]},{"header":{"parameterUnit":"m.s-1","parameterCategory":2,"la1":30.2991,"la2":30.254,"lo1":-89.0895,"lo2":-89.0444,"dy":0.0017,"dx":0.0017,"nx":28,"ny":28,"refTime":"2025-07-03T21:00:00:Z","depth":"4","parameterNumber":3,"parameterNumberName":"V-component_of_CURRENTS"},"data":[0,0,0,0,0,0,0,0,0,0,0,0,0,0,0,0,0,0,0,0,0,0,0,0,0,0,0,0,0,0,0,0,0,0,0,0,0,0,0,0,0,0,0,0,0,0,0,0,0,0,0,0,0,0,0,0,0,0,0.0585,0.0586,0,0.068,0.068,0.0681,0.0732,0.0733,0.0734,0.0735,0.0662,0.0659,0.0657,0,0,0,0,0,0,0,0,0,0,0,0,0,0.0498,0.0498,0.0585,0.0586,0.0588,0.068,0.068,0.0681,0.0732,0.0733,0.0734,0.0735,0.0663,0.066,0.0656,0,0,0,0,0,0,0,0,0,0,0,0,0,0.0551,0.0498,0.0584,0.0631,0.0637,0.068,0.068,0.0681,0.0732,0.0733,0.0734,0.0736,0.0664,0.066,0.0656,0.0605,0,0,0.0643,0.0642,0,0,0,0,0,0,0,0,0.0547,0.0553,0.0622,0.0628,0.0635,0.0703,0.0624,0.065,0.0732,0.0687,0.0735,0.0736,0.0664,0.066,0.0666,0.0601,0.0598,0.0643,0.0641,0.0639,0.0638,0,0,0,0,0,0,0,0.0544,0.0549,0.0614,0.0624,0.0632,0.0665,0.0673,0.0629,0.0658,0.0691,0.0697,0.072,0.0665,0.067,0.0664,0.0597,0.0643,0.0639,0.0637,0.0635,0.0451,0.0449,0,0,0,0,0,0,0.0544,0.0545,0.0611,0.0618,0.0602,0.0666,0.0674,0.0673,0.0662,0.0666,0.0719,0.0722,0.0677,0.0669,0.0662,0.0576,0.0639,0.0635,0.0633,0.0453,0.045,0.0448,0,0,0,0,0,0,0.0541,0.0548,0.0607,0.0592,0.0603,0.0667,0.0665,0.0674,0.0708,0.0687,0.0685,0.0747,0.0677,0.0668,0.0611,0.0575,0.0633,0.0629,0.0456,0.0452,0.0449,0.0419,0,0,0,0,0,0,0.0538,0.0545,0.0574,0.0591,0.0604,0.0641,0.0665,0.0675,0.0722,0.0728,0.0709,0.0703,0.0678,0.0617,0.0607,0.057,0.0626,0.0459,0.0455,0.045,0.0423,0.0415,0.0408,0,0,0,0,0,0.0534,0.0568,0.0573,0.0584,0.063,0.0642,0.065,0.0696,0.0722,0.0731,0.0699,0.0705,0.0581,0.0612,0.0601,0.0561,0.0462,0.0456,0.0451,0.0427,0.0417,0.0408,0,0,0,0,0,0,0.0542,0.0578,0.0584,0.0626,0.0635,0.0654,0.0699,0.0708,0.0696,0.0706,0.0675,0.0664,0.0598,0.0581,0.0616,0.0492,0.0521,0.0513,0.0507,0.0497,0.049,0.0509,0.0623,0,0,0,0,0,0.0555,0.0596,0.0604,0.064,0.0652,0.0673,0.0699,0.0708,0.0697,0.07,0.0662,0.0619,0.0561,0.0535,0.0483,0.042,0.0415,0.0385,0.0377,0.0371,0.0376,0.0326,0.0315,0.043,0.043,0.043,0,0,0.0565,0.06,0.062,0.0648,0.067,0.0662,0.069,0.0723,0.0698,0.0685,0.0636,0.0592,0.0538,0.0459,0.0428,0.0445,0.0333,0.0364,0.036,0.0368,0.0319,0.0308,0.0299,0.0426,0.0427,0.0427,0,0,0.0597,0.0635,0.0669,0.0672,0.0709,0.0698,0.0706,0.07,0.069,0.0627,0.0603,0.0539,0.0456,0.0401,0.0366,0.0286,0.0294,0.0268,0.0246,0.0196,0.0187,0.0179,0.016,0.015,0.0265,0.0265,0.0265,0,0.0627,0.0643,0.0678,0.0695,0.0702,0.0707,0.0698,0.0678,0.0638,0.0609,0.0606,0.0466,0.0423,0.0328,0.0293,0.027,0.0258,0.029,0.0189,0.0181,0.0173,0.0155,0.0145,0.0263,0.0263,0.0263,0.0264,0,0.0626,0.0668,0.0691,0.0699,0.0697,0.0704,0.0663,0.0633,0.0607,0.0568,0.0474,0.0399,0.0325,0.0284,0.0262,0.0175,0.019,0.0188,0.0222,0.016,0.0145,0.0135,0.026,0.0261,0.0261,0.0262,0,0,0.0641,0.0686,0.0706,0.071,0.07,0.0694,0.064,0.0585,0.0558,0.0477,0.0418,0.0296,0.0276,0.0235,0.0192,0.0137,0.0066,0.0141,0.0139,0.014,-0.0023,0.003,0.0025,0.005,0.0048,0.0046,-0.001,0,0.0641,0.0689,0.0688,0.0691,0.0694,0.0664,0.0614,0.0561,0.0506,0.0439,0.0355,0.029,0.0252,0.0225,0.0154,0.0083,0.0038,0.0083,0.0022,0.002,0.009,0.0015,0.0039,-0.0017,-0.0019,-0.0021,-0.0022,0,0.0635,0.067,0.0696,0.0695,0.0692,0.0675,0.0612,0.0566,0.0475,0.0435,0.0353,0.0299,0.0191,0.0186,0.0037,0.007,0.0027,-0.0022,-0.0025,0.0032,0.0055,0.0054,-0.0039,-0.0038,-0.0036,-0.0035,-0.0034,0,0.0634,0.0674,0.0705,0.0703,0.0687,0.0677,0.0649,0.0574,0.0541,0.0453,0.0422,0.0291,0.0234,0.0136,0.003,0.0035,-0.0112,-0.0114,-0.0104,-0.0099,-0.0111,-0.0102,-0.0196,-0.0196,-0.0196,-0.0196,-0.0195,0,0.0618,0.0658,0.0722,0.073,0.0732,0.0709,0.0687,0.0639,0.0581,0.0519,0.0443,0.0341,0.0219,0.0114,0.0028,-0.0071,-0.0112,-0.0116,-0.0121,-0.0124,-0.0116,-0.0118,-0.0108,-0.0198,-0.0197,-0.0197,-0.0196,0,0.0611,0.0669,0.0711,0.0734,0.0744,0.0747,0.0736,0.0705,0.0665,0.0583,0.0563,0.0388,0.024,0.0149,-0.0016,-0.0058,-0.0158,-0.0168,-0.0147,-0.0148,-0.0108,-0.01,-0.0175,-0.0173,-0.0172,-0.0172,-0.0171,0,0.0599,0.0643,0.0727,0.0755,0.0776,0.079,0.0783,0.0752,0.0706,0.0563,0.0498,0.0371,0.025,0.0036,-0.0048,-0.0143,-0.0148,-0.0166,-0.016,-0.0115,-0.0112,-0.0105,-0.0098,-0.0169,-0.0169,-0.0169,-0.0168,0,0.0568,0.0651,0.0675,0.0752,0.0784,0.079,0.0773,0.0712,0.063,0.0652,0.0408,0.0291,0.0141,-0.0017,-0.0034,-0.0129,-0.0148,-0.0156,-0.0159,-0.0153,-0.0109,-0.0105,-0.01,-0.0165,-0.0166,-0.0166,-0.0166,0,0.0563,0.0586,0.0663,0.0702,0.0771,0.0726,0.0705,0.0611,0.0561,0.0418,0.0316,0.0156,0.0086,-0.0012,-0.0088,-0.0102,-0.0115,-0.0126,-0.0131,-0.0134,-0.0091,-0.0026,-0.0074,0,0,0,0,0,0.0534,0.0554,0.0594,0.0634,0.0706,0.0745,0.0672,0.0631,0.0548,0.0389,0.0359,0.0208,0.0068,-0.0044,-0.0053,-0.0051,-0.0096,-0.0059,-0.0106,-0.0146,-0.015,-0.0099,0,0,0,0,0,0,0.0517,0.0568,0.0565,0.058,0.0615,0.0659,0.0602,0.053,0.0414,0.0338,0.0236,0.0277,0.0124,0.0123,-0.0019,-0.0026,-0.0052,-0.0087,-0.0087,-0.0144,-0.0147,-0.015,-0.0099,0,0,0,0,0]}]]